Regional Weather Roundup
Issued by NWS

Home | Current Version | Previous Version | Text Only | Print | Product List | Glossary Off
Versions: 1 2 3 4 5 6 7 8 9 10 11 12 13 14 15 16 17 18 19 20 21 22 23 24 25 26 27 28 29 30 31 32 33 34 35 36 37 38 39 40 41 42 43 44 45 46 47 48 49 50

000
ASUS45 KBOU 250107
RWRCO

WEATHER ROUNDUP FOR COLORADO
NATIONAL WEATHER SERVICE DENVER/BOULDER CO
700 PM MDT SUN MAY 24 2015

NOTE: "FAIR" INDICATES FEW OR NO CLOUDS BELOW 12000 FEET WITH NO
SIGNIFICANT WEATHER AND/OR OBSTRUCTIONS TO VISIBILITY.

COZ001>005-013-030-031-250200-
...NORTHWEST COLORADO...

CITY           SKY/WX    TMP DP  RH WIND       PRES   REMARKS
CRAIG          CLOUDY    46  39  76 SW9       29.93F
HAYDEN         PTSUNNY   43  36  75 W7        29.93F
MEEKER         CLOUDY    45  40  82 SW5       29.95S
MOUNT WERNER   NOT AVBL
STEAMBOAT SPGS CLOUDY    41  38  89 E7        29.94F
WALDEN         CLOUDY    37  32  81 NW14      29.94R
$$

COZ006>008-011-250200-
...WEST CENTRAL VALLEYS...

CITY           SKY/WX    TMP DP  RH WIND       PRES   REMARKS
GRAND JUNCTION CLOUDY    58  38  47 NW5       29.87S
MONTROSE       CLOUDY    55  39  54 N13       29.92S
EAGLE          NOT AVBL
RIFLE          LGT RAIN  48  43  82 N3        29.94S
DELTA          CLOUDY    58  43  58 MISG      29.89S
NUCLA          CLOUDY    59  37  44 S3        29.94S
$$

COZ017>023-064>068-250200-
...SOUTHWEST COLORADO...

CITY           SKY/WX    TMP DP  RH WIND       PRES   REMARKS
DURANGO        PTSUNNY   57  32  38 W18       29.93S
CORTEZ         SUNNY     57  39  51 W7        29.92F
PAGOSA SPRINGS HVY RAIN  43  40  90 NW5       30.00S
TELLURIDE      PTSUNNY   41  37  86 SE6       30.03F
WOLF CREEK PAS NOT AVBL
$$

COZ009-010-012-014-032>034-037-058>063-250200-
...CENTRAL COLORADO...

CITY           SKY/WX    TMP DP  RH WIND       PRES   REMARKS
ASPEN          CLOUDY    45  37  73 N5        29.95F
BUENA VISTA    PTSUNNY   52  25  35 SW17G30   29.88S
COPPER MTN     FOG       34  30  86 W18       30.04F VSB 1/2 WCI  23
BERTHOUD PASS  SNOW      25  18  74 NW24G35   30.04F VSB 1/4 WCI   9
COTTONWOOD PAS PTSUNNY   45  23  42 W17G28    29.96S
GUNNISON       PTSUNNY   50  28  43 W9G18     29.96S
KREMMLING      LGT RAIN  39  34  81 N6        29.96R
LEADVILLE      CLOUDY    38  27  64 NW17G23   29.97S
SALIDA         PTSUNNY   56  28  32 W17       29.95R
SUNLIGHT       LGT SNOW  34  32  93 CALM      30.06F VSB 3/4
WILKERSON PASS SNOW      32  30  93 E8        30.03R VSB<1/4 WCI  25
$$

COZ069>075-250200-
...SAN LUIS VALLEY/SANGRE DE CRISTO MOUNTAINS...

CITY           SKY/WX    TMP DP  RH WIND       PRES   REMARKS
ALAMOSA        CLOUDY    48  35  60 E6        29.92F
LA VETA PASS   CLOUDY   N/A N/A N/A MISG      29.98S
SAGUACHE       LGT RAIN  46  37  71 S9        29.93F
$$

COZ035-036-038>040-250200-
...NORTHERN COLORADO FRONT RANGE...

CITY           SKY/WX    TMP DP  RH WIND       PRES   REMARKS
DENVER INTL AP PTSUNNY   60  41  49 VRB6      29.82S
DMNS CITY PARK   N/A     57  38  47 W2        29.83S
AURORA         NOT AVBL
FRONT RANGE AP NOT AVBL
ERIE MUNI ARPT PTSUNNY   55  42  62 CALM      29.82S
BOULDER MUN AP PTSUNNY   55  41  58 CALM      29.83R
CENTENNIAL     CLOUDY    53  43  68 W7        29.84S
BROOMFIELD     NOT AVBL
FORT COLLINS   MOSUNNY   54  41  62 NW9       29.84S
LONGMONT       MOSUNNY   62  40  43 W3        29.85R
$$

COZ041-046-047-076>085-087-088-250200-
...PIKES PEAK/PALMER DIVIDE AND SOUTHERN FOOTHILLS...

CITY           SKY/WX    TMP DP  RH WIND       PRES   REMARKS
COLO. SPRINGS  MOSUNNY   54  39  57 NE7       29.86R
A. F. ACADEMY  NOT AVBL
ELLICOTT       NOT AVBL
FALCON         PTSUNNY   52  37  57 CALM      29.89R
FORT CARSON    NOT AVBL
LIMON          CLOUDY    58  37  45 W5        29.81F
MONUMENT HILL  NOT AVBL
TRINIDAD       PTSUNNY   55  39  54 W6        29.81F
$$

COZ042>045-048>051-090-091-250200-
...NORTHEAST COLORADO...

CITY           SKY/WX    TMP DP  RH WIND       PRES   REMARKS
GREELEY ARPT   MOSUNNY   59  39  47 NE3       29.82S
AKRON          CLOUDY    50  47  89 N6        29.80S
BURLINGTON     LGT RAIN  48  45  89 N6        29.81F
WRAY           HVY RAIN N/A N/A N/A N12       29.80F
STERLING       CLOUDY    52  50  93 N5        29.77F
HOLYOKE        NOT AVBL
FORT MORGAN    CLOUDY    57  44  61 N7        29.81F
$$

COZ086-089-092>099-250200-
...SOUTHEAST COLORADO...

CITY           SKY/WX    TMP DP  RH WIND       PRES   REMARKS
PUEBLO         PTSUNNY   59  41  51 SE6       29.77F
LA JUNTA       LGT RAIN  56  50  80 SE9       29.77F
LAMAR          CLOUDY    57  54  89 W6        29.73F
SPRINGFIELD      N/A     56  47  71 NW20G25   29.79R
$$


USA.gov is the U.S. government's official web portal to all federal, state and local government web resources and services.